Location: Drummondville
(45.8830°N, 72.4830°W)
Time: 18:46:04
(UTC-05:00)

N. Korean satellite - Pass Details

Date: 12 November 2017
Orbit: 460 x 514 km, 97.2° (Epoch: 22 November)

Event Time Altitude Azimuth Distance (km) Brightness Sun altitude
Rises 18:00:19 0° 176° (S) 2,474 10.2 -17.3°
Reaches altitude 10° 18:02:22 10° 181° (S) 1,607 9.3 -17.6°
Maximum altitude 18:05:45 55° 260° (W) 567 7.2 -18.2°
Drops below altitude 10° 18:09:13 10° 339° (NNW) 1,639 9.4 -18.8°
Sets 18:11:19 0° 344° (NNW) 2,529 10.3 -19.2°
